Regional Weather Roundup
Issued by NWS

Current Version | Previous Version | Text Only | Print | Product List | Glossary On
Versions: 1 2 3 4 5 6 7 8 9 10 11 12 13 14 15 16 17 18 19 20 21 22 23 24 25 26 27 28 29 30 31 32 33 34 35 36 37 38 39 40 41 42 43 44 45 46 47 48 49 50
000
ASUS44 KLUB 211310
RWRTX
WEST TEXAS WEATHER ROUNDUP
NATIONAL WEATHER SERVICE LUBBOCK TX
800 AM CDT TUE APR 21 2015

NOTE: "FAIR" INDICATES FEW OR NO CLOUDS BELOW 12,000 FEET WITH NO
SIGNIFICANT WEATHER AND/OR OBSTRUCTIONS TO VISIBILITY.

TXZ004-006>008-010-012-014-016-OKZ002-211400-
TEXAS PANHANDLE/OKLAHOMA PANHANDLE

CITY           SKY/WX    TMP DP  RH WIND       PRES   REMARKS
AMARILLO       CLEAR     46  38  73 W5        29.97R
BORGER         SUNNY     47  42  83 CALM      29.97R
CANADIAN       SUNNY     46  43  90 SE5       29.97R
DALHART        CLEAR     42  38  85 NW6       29.98R
DUMAS          CLEAR     39  37  95 N3        29.97R
GUYMON         SUNNY     40  38  93 SW8       29.94S WCI  34
HEREFORD       CLEAR     40  37  92 W3        29.97R
PAMPA          SUNNY     46  40  79 SW5       29.97R
PERRYTON       SUNNY     42  40  93 CALM      29.95S
$$

TXZ026-029-035-045-048-211400-
SOUTHERN PANHANDLE/SOUTH PLAINS/ROLLING PLAINS

CITY           SKY/WX    TMP DP  RH WIND       PRES   REMARKS
CHILDRESS      SUNNY     51  40  65 S9        29.97S
SEMINOLE       CLEAR     44  38  81 S3        29.95R
LUBBOCK        PTCLDY    45  39  79 NE8       29.97R
PLAINVIEW      CLEAR     42  38  86 E3        29.97R
SNYDER         CLEAR    N/A N/A N/A S9        29.95R
$$

TXZ052-054-060>062-072-078-127-140-154-169-211400-
PERMIAN BASIN/CONCHO VALLEY/BIG COUNTRY/EDWARDS PLATEAU

CITY           SKY/WX    TMP DP  RH WIND       PRES   REMARKS
ABILENE        PTSUNNY   55  45  68 S12       29.97R
BIG SPRING     CLEAR     54  40  60 SE9       29.96R
BRADY          SUNNY     54  46  76 E7        29.99S
BROWNWOOD      SUNNY     52  45  76 SE6       29.99F
JUNCTION       SUNNY     50  46  86 CALM      29.99R
MIDLAND        CLEAR     51  41  68 SE9       29.94R
ODESSA         CLEAR     50  41  71 SE6       29.95R
SAN ANGELO     SUNNY     52  47  83 E6        29.97R
SONORA         CLEAR     54  46  76 SE6       30.00R
SWEETWATER     CLOUDY    56  46  69 SE15      29.97F
WINK           CLEAR     47  38  71 CALM      29.93R
$$

TXZ055-058-074-075-080-082-211400-
FAR WEST/SOUTHWEST MOUNTAINS/TRANS PECOS

CITY           SKY/WX    TMP DP  RH WIND       PRES   REMARKS
ALPINE         CLEAR     53  44  72 SW9       30.04R
DRYDEN           N/A     53  46  77 N6        29.94R
EL PASO        PTCLDY    60  22  23 SE6       29.94R
FORT STOCKTON  CLEAR     51  43  74 N5        29.92R
GUADALUPE PASS CLEAR     56  35  45 SW13      30.02R
PECOS          CLEAR     48  40  72 N5        29.93R
$$

TXZ014-016-019-021>030-083-211400
TEXAS TECH WEST TEXAS MESONET/TEXAS PANHANDLE/NORTHERN SOUTH PLAINS

CITY           SKY/WX    TMP DP  RH WIND       PRES   REMARKS
$$

TXZ033>036-039>041-045>048-211400
TEXAS TECH WEST TEXAS MESONET/SOUTH PLAINS

CITY           SKY/WX    TMP DP  RH WIND       PRES   REMARKS
$$

TXZ031-032-036>038-042>044-211400-
TEXAS TECH WEST TEXAS MESONET/ROLLING PLAINS

CITY           SKY/WX    TMP DP  RH WIND       PRES   REMARKS
$$

TXZ052-054-060>062-072-078-127-140-154-169-211400-
TEXAS TECH WEST TEXAS MESONET/PERMIAN BASIN/
CONCHO VALLEY/BIG COUNTRY/EDWARDS PLATEAU

CITY           SKY/WX    TMP DP  RH WIND       PRES   REMARKS
$$

TXZ055-058-074-075-080-082-211400-
TEXAS TECH WEST TEXAS MESONET/FAR WEST/SOUTHWEST MOUNTAINS/TRANS PECOS

CITY           SKY/WX    TMP DP  RH WIND       PRES   REMARKS
$$



USA.gov is the U.S. government's official web portal to all federal, state and local government web resources and services.